Terminal Aerodrome Forecast
Issued by NWS Louisville, KY

Home | Current Version | Previous Version | Text Only | Print | Product List | Glossary On
Versions: 1 2 3 4 5 6 7 8 9 10 11 12 13 14 15 16 17 18 19 20 21 22 23
128
FTUS43 KLMK 232335
TAFBWG
TAF
KBWG 232335Z 2400/2424 02006KT P6SM BKN025
      TEMPO 2400/2402 6SM -SHRA BKN015=

USA.gov is the U.S. government's official web portal to all federal, state and local government web resources and services.